Coleman, TX

12:29 PM CDT on July 28, 2016 (GMT -0500)
Coleman Municipal

Weather History for KCOM - April, 2014

Change the Weather History Date:

Wednesday, April 23, 2014

  Actual Average (KABI) Record (KABI)
Temperature  
Mean Temperature 74 °F 67 °F  
Max Temperature 90 °F 79 °F 95 °F (1894)
Min Temperature 58 °F 54 °F 37 °F (1907)
Degree Days  
Heating Degree Days 0 2  
Month to date heating degree days 99  
Since 1 July heating degree days 2530  
Cooling Degree Days 9 4  
Month to date cooling degree days 66  
Year to date cooling degree days 100  
Growing Degree Days 24 (Base 50)    
Moisture  
Dew Point 55 °F    
Average Humidity 54    
Maximum Humidity 82    
Minimum Humidity 26    
Precipitation  
Precipitation 0.00 in 0.06 in 2.40 in (2004)
Month to date precipitation 1.15  
Year to date precipitation 5.27  
Sea Level Pressure  
Sea Level Pressure 29.83 in    
Wind  
Wind Speed 10 mph (South)    
Max Wind Speed 22 mph    
Max Gust Speed 29 mph    
Visibility 10 miles    
Events      
T = Trace of Precipitation, MM = Missing Value Source: NWS Daily Summary

Daily Weather History Graph

Daily Weather History Graph

Search for Another Location

Airport or City:

Trip Planner

Search our weather history database for the weather conditions in past years. The results will help you decide how hot, cold, wet, or windy it might be!

Date:

Astronomy

Apr. 23, 2014 Rise Set
Actual Time 6:59 AM CDT 8:12 PM CDT
Civil Twilight 6:34 AM CDT 8:37 PM CDT
Nautical Twilight 6:04 AM CDT 9:08 PM CDT
Astronomical Twilight 5:32 AM CDT 9:39 PM CDT
Moon 3:10 AM CDT (4/23) 2:43 PM CDT (4/23)
Length of Visible Light 14h 03m
Length of Day
13h 12m
Waning Crescent, 34% of the Moon is Illuminated
Apr 23
Waning Crescent
Apr 29
New
May 6
First Quarter
May 14
Full
May 21
Last Quarter

Hourly Weather History & Observations

Time (CDT) Temp. Heat Index Dew Point Humidity Pressure Visibility Wind Dir Wind Speed Gust Speed Precip Events Conditions
12:15 AM 64.2 °F - 49.5 °F 59% 29.97 in 10.0 mi SSE 6.9 mph - N/A   Clear
12:35 AM 63.5 °F - 49.8 °F 61% 29.96 in 10.0 mi SSE 5.8 mph - N/A   Clear
12:55 AM 62.6 °F - 50.0 °F 63% 29.96 in 10.0 mi SSE 5.8 mph - N/A   Clear
1:15 AM 61.7 °F - 50.4 °F 66% 29.96 in 10.0 mi SSE 6.9 mph - N/A   Clear
1:35 AM 62.1 °F - 50.9 °F 67% 29.96 in 10.0 mi SSE 6.9 mph - N/A   Clear
1:55 AM 63.0 °F - 51.4 °F 66% 29.96 in 10.0 mi SSE 5.8 mph - N/A   Clear
2:15 AM 63.5 °F - 52.3 °F 67% 29.95 in 10.0 mi SSE 6.9 mph - N/A   Clear
2:35 AM 62.6 °F - 52.7 °F 70% 29.95 in 10.0 mi South 5.8 mph - N/A   Clear
2:55 AM 61.2 °F - 52.9 °F 74% 29.94 in 10.0 mi SSE 5.8 mph - N/A   Clear
3:15 AM 60.1 °F - 52.7 °F 77% 29.93 in 10.0 mi South 5.8 mph - N/A   Clear
3:55 AM 60.1 °F - 52.7 °F 77% 29.93 in 10.0 mi South 4.6 mph - N/A   Clear
4:15 AM 59.4 °F - 52.7 °F 79% 29.93 in 10.0 mi South 4.6 mph - N/A   Clear
4:35 AM 58.8 °F - 52.3 °F 79% 29.92 in 10.0 mi SSE 4.6 mph - N/A   Clear
4:55 AM 58.3 °F - 51.8 °F 79% 29.93 in 10.0 mi South 5.8 mph - N/A   Clear
5:15 AM 58.8 °F - 53.1 °F 81% 29.92 in 10.0 mi SSE 8.1 mph - N/A   Clear
5:35 AM 60.3 °F - 53.6 °F 79% 29.92 in 10.0 mi South 6.9 mph - N/A   Clear
5:55 AM 60.3 °F - 53.4 °F 78% 29.92 in 10.0 mi South 6.9 mph - N/A   Clear
6:15 AM 59.9 °F - 53.4 °F 79% 29.93 in 10.0 mi South 4.6 mph - N/A   Clear
6:35 AM 59.0 °F - 53.2 °F 81% 29.93 in 10.0 mi South 5.8 mph - N/A   Clear
6:55 AM 59.0 °F - 53.6 °F 82% 29.93 in 10.0 mi SSE 8.1 mph - N/A   Clear
7:15 AM 59.9 °F - 54.1 °F 81% 29.92 in 10.0 mi SSE 6.9 mph - N/A   Clear
7:35 AM 61.7 °F - 54.7 °F 78% 29.93 in 10.0 mi South 5.8 mph - N/A   Clear
7:55 AM 63.0 °F - 55.6 °F 77% 29.93 in 10.0 mi South 6.9 mph - N/A   Clear
8:15 AM 64.4 °F - 56.3 °F 75% 29.93 in 10.0 mi South 8.1 mph - N/A   Clear
8:35 AM 66.2 °F - 56.8 °F 72% 29.93 in 10.0 mi South 8.1 mph - N/A   Clear
8:55 AM 68.4 °F - 58.1 °F 70% 29.93 in 10.0 mi South 9.2 mph - N/A   Clear
9:15 AM 69.8 °F - 58.6 °F 68% 29.92 in 10.0 mi South 10.4 mph 17.3 mph N/A   Clear
9:35 AM 71.6 °F - 59.2 °F 65% 29.92 in 10.0 mi South 13.8 mph 18.4 mph N/A   Clear
9:55 AM 73.2 °F - 59.9 °F 63% 29.91 in 10.0 mi South 16.1 mph 20.7 mph N/A   Clear
10:15 AM 75.0 °F - 60.3 °F 60% 29.91 in 10.0 mi South 12.7 mph 20.7 mph N/A   Clear
10:35 AM 77.5 °F - 61.0 °F 57% 29.91 in 10.0 mi South 13.8 mph 21.9 mph N/A   Clear
10:55 AM 78.3 °F - 60.8 °F 55% 29.90 in 10.0 mi South 16.1 mph 24.2 mph N/A   Clear
11:15 AM 79.2 °F - 60.3 °F 52% 29.89 in 10.0 mi South 17.3 mph 23.0 mph N/A   Clear
11:35 AM 81.3 °F 81.9 °F 60.3 °F 49% 29.89 in 10.0 mi South 16.1 mph 24.2 mph N/A   Clear
11:55 AM 82.6 °F 82.6 °F 59.5 °F 45% 29.87 in 10.0 mi South 16.1 mph 26.5 mph N/A   Clear
12:15 PM 83.3 °F 83.1 °F 58.8 °F 43% 29.87 in 10.0 mi South 17.3 mph 25.3 mph N/A   Clear
12:35 PM 84.2 °F 83.7 °F 58.5 °F 41% 29.87 in 10.0 mi SSW 17.3 mph 24.2 mph N/A   Scattered Clouds
12:55 PM 85.6 °F 84.5 °F 56.7 °F 37% 29.85 in 10.0 mi South 16.1 mph 24.2 mph N/A   Scattered Clouds
1:15 PM 85.5 °F 84.5 °F 56.8 °F 38% 29.84 in 10.0 mi SSW 12.7 mph 24.2 mph N/A   Clear
1:35 PM 84.2 °F 83.2 °F 55.9 °F 38% 29.83 in 10.0 mi SSW 11.5 mph 20.7 mph N/A   Clear
1:55 PM 87.6 °F 85.9 °F 55.4 °F 33% 29.82 in 10.0 mi SSE 11.5 mph 19.6 mph N/A   Clear
2:15 PM 87.8 °F 85.7 °F 53.6 °F 31% 29.81 in 10.0 mi South 17.3 mph 26.5 mph N/A   Clear
2:55 PM 88.7 °F - 50.4 °F 27% 29.79 in 10.0 mi South 16.1 mph 25.3 mph N/A   Clear
3:15 PM 88.9 °F 86.7 °F 53.8 °F 30% 29.77 in 10.0 mi South 11.5 mph 20.7 mph N/A   Clear
3:35 PM 87.8 °F 85.5 °F 53.1 °F 30% 29.75 in 10.0 mi SSE 15.0 mph 23.0 mph N/A   Clear
3:55 PM 87.4 °F 85.5 °F 54.0 °F 32% 29.74 in 10.0 mi South 15.0 mph 23.0 mph N/A   Clear
4:15 PM 89.6 °F 87.3 °F 53.4 °F 29% 29.73 in 10.0 mi SSE 18.4 mph 28.8 mph N/A   Clear
4:35 PM 90.7 °F 88.3 °F 53.2 °F 28% 29.71 in 10.0 mi South 15.0 mph 25.3 mph N/A   Clear
4:55 PM 90.9 °F 88.5 °F 53.1 °F 28% 29.70 in 10.0 mi South 16.1 mph 25.3 mph N/A   Clear
5:15 PM 90.1 °F 87.9 °F 54.1 °F 29% 29.70 in 10.0 mi South 16.1 mph 24.2 mph N/A   Clear
5:35 PM 90.0 °F - 50.4 °F 26% 29.69 in 10.0 mi South 17.3 mph 26.5 mph N/A   Clear
6:15 PM 88.7 °F 86.5 °F 53.2 °F 30% 29.68 in 10.0 mi SSE 18.4 mph 26.5 mph N/A   Clear
6:35 PM 87.4 °F 85.3 °F 53.4 °F 31% 29.68 in 10.0 mi South 18.4 mph 28.8 mph N/A   Clear
6:55 PM 86.4 °F 84.4 °F 53.6 °F 32% 29.67 in 10.0 mi SSE 19.6 mph 25.3 mph N/A   Clear
7:15 PM 85.3 °F 83.6 °F 53.6 °F 34% 29.67 in 10.0 mi South 17.3 mph 26.5 mph N/A   Clear
7:35 PM 84.4 °F 82.8 °F 53.2 °F 34% 29.66 in 10.0 mi South 16.1 mph 26.5 mph N/A   Clear
7:55 PM 83.7 °F 82.4 °F 54.0 °F 36% 29.66 in 10.0 mi South 17.3 mph 27.6 mph N/A   Clear
8:15 PM 82.8 °F 82.0 °F 55.4 °F 39% 29.67 in 10.0 mi South 20.7 mph 26.5 mph N/A   Clear
8:35 PM 81.9 °F 81.4 °F 56.3 °F 41% 29.67 in 10.0 mi South 17.3 mph 28.8 mph N/A   Clear
8:55 PM 81.0 °F 80.9 °F 56.3 °F 43% 29.67 in 10.0 mi SSE 21.9 mph 27.6 mph N/A   Clear
9:15 PM 79.9 °F - 56.3 °F 44% 29.70 in 10.0 mi South 13.8 mph 24.2 mph N/A   Clear
9:35 PM 79.3 °F - 56.5 °F 45% 29.69 in 10.0 mi South 16.1 mph 24.2 mph N/A   Clear
9:55 PM 78.8 °F - 56.8 °F 47% 29.70 in 10.0 mi SSE 12.7 mph 20.7 mph N/A   Clear
10:15 PM 77.4 °F - 57.7 °F 51% 29.71 in 10.0 mi SSE 16.1 mph 21.9 mph N/A   Clear
10:35 PM 77.0 °F - 58.1 °F 52% 29.72 in 10.0 mi SSE 11.5 mph 19.6 mph N/A   Clear
10:55 PM 75.7 °F - 58.6 °F 55% 29.73 in 10.0 mi SE 8.1 mph - N/A   Clear
11:15 PM 74.8 °F - 59.0 °F 58% 29.74 in 10.0 mi SSE 12.7 mph 16.1 mph N/A   Clear
11:35 PM 73.9 °F - 59.0 °F 59% 29.74 in 10.0 mi SSE 10.4 mph - N/A   Clear
11:55 PM 73.6 °F - 59.0 °F 60% 29.75 in 10.0 mi SSE 9.2 mph - N/A   Clear